Home   Weather   Mutsamudu   Past weeks

Flag for Comoros Past Weather in Mutsamudu, Comoros — Yesterday and Last 2 Weeks

79 °F


Feels Like: 82 °F
Forecast: 75 / 79 °F
Wind: 5 mph from Northeast

Location: Dzaoudzi / Pamanzi Mayotte

Current Time: Oct 26, 2016 at 10:15:45 PM

Latest Report: Oct 26, 2016 at 9:30 PM

Visibility: N/A

Pressure: 29.92 "Hg

Humidity: 84%

Dew Point: 73 °F

Location of MutsamuduLocation

Past Weather in Mutsamudu — Graph


Mutsamudu Temperature Yesterday

Maximum temperature yesterday: 88 °F (at 12:30 PM)
Minimum temperature yesterday: 75 °F (at 12:00 AM)
Average temperature yesterday: 80 °F

High & Low Weather Summary for the Past Weeks

High88 °F (Oct 25, 12:30 PM)94% (Oct 24, 6:00 AM)30.07 "Hg (Oct 24, 6:00 AM)
Low72 °F (Oct 21, 1:00 AM)55% (Oct 14, 2:05 PM)29.86 "Hg (Oct 25, 3:30 PM)
Average79 °F72%29.98 "Hg
* Reported Oct 11 9:00 PM — Oct 26 9:00 PM, Mutsamudu, Weather by CustomWeather, © 2016

Note: Actual official high and low records may vary slightly from our data, if they occured in-between our weather recording intervals... More about our weather records


Mutsamudu Weather History for the Previous 24 Hours

Scroll right to see more
Time TempWeatherWind HumidityBarometerVisibility
9:00 PM
Wed, Oct 26
77 °FWarm.5 mph89%29.92 "HgN/A
8:30 PM77 °FWarm.2 mph83%29.92 "HgN/A
8:00 PM79 °FWarm.3 mph79%29.92 "HgN/A
7:30 PM79 °FWarm.3 mph79%29.89 "HgN/A
7:00 PM79 °FWarm.2 mph79%29.89 "HgN/A
6:30 PM81 °FWarm.2 mph74%29.89 "HgN/A
6:04 PM81 °FPassing clouds.3 mph74%29.89 "HgN/A
5:30 PM82 °FPassing clouds.3 mph70%29.89 "HgN/A
5:00 PM84 °FPassing clouds.3 mph70%29.86 "HgN/A
4:30 PM84 °FPassing clouds.3 mph70%29.86 "HgN/A
4:00 PM84 °FPassing clouds.2 mph70%29.86 "HgN/A
3:00 PM81 °FScattered clouds.3 mph74%29.86 "HgN/A
2:30 PM81 °FBroken clouds.6 mph79%29.86 "HgN/A
2:00 PM84 °FBroken clouds.3 mph66%29.86 "HgN/A
1:30 PM82 °FBroken clouds.6 mph70%29.89 "HgN/A
1:00 PM84 °FBroken clouds.8 mph70%29.89 "HgN/A
12:30 PM84 °FBroken clouds.7 mph70%29.89 "HgN/A
12:00 PM86 °FScattered clouds.6 mph66%29.92 "HgN/A
11:35 AM84 °FScattered clouds.3 mph70%29.92 "HgN/A
11:00 AM82 °FBroken clouds.2 mph74%29.95 "HgN/A
10:30 AM81 °FBroken clouds.6 mph79%29.95 "HgN/A
10:00 AM79 °FBroken clouds.6 mph84%29.95 "HgN/A
9:30 AM79 °FScattered showers. Broken clouds.5 mph84%29.95 "HgN/A
9:00 AM79 °FScattered clouds.7 mph79%29.95 "HgN/A
8:34 AM81 °FSprinkles. Scattered clouds.10 mph79%29.95 "HgN/A
8:00 AM81 °FScattered showers. Scattered clouds.10 mph79%29.95 "HgN/A
7:30 AM81 °FScattered clouds.6 mph79%29.92 "HgN/A
7:00 AM79 °FScattered clouds.8 mph84%29.92 "HgN/A
6:30 AM79 °FScattered clouds.8 mph84%29.92 "HgN/A
6:00 AM79 °FScattered clouds.8 mph84%29.89 "HgN/A
5:30 AM79 °FSprinkles. Scattered clouds.8 mph79%29.89 "HgN/A
5:05 AM79 °FPassing clouds.7 mph79%29.89 "HgN/A
4:30 AM77 °FMostly cloudy.3 mph83%29.86 "HgN/A
4:00 AM77 °FMostly cloudy.6 mph83%29.86 "HgN/A
3:30 AM77 °FWarm.7 mph83%29.86 "HgN/A
3:00 AM77 °FWarm.7 mph89%29.86 "HgN/A
2:30 AM75 °FMild.3 mph89%29.86 "HgN/A
2:00 AM75 °FMild.No wind89%29.86 "HgN/A
1:30 AM75 °FMild.No wind83%29.86 "HgN/A
1:00 AM75 °FMild.1 mph89%29.89 "HgN/A
12:30 AM77 °FWarm.3 mph83%29.89 "HgN/A
12:00 AM77 °FWarm.3 mph83%29.89 "HgN/A
11:30 PM
Tue, Oct 25
79 °FWarm.3 mph79%29.92 "HgN/A
11:00 PM79 °FWarm.6 mph79%29.92 "HgN/A
10:30 PM79 °FWarm.6 mph79%29.92 "HgN/A
10:00 PM79 °FWarm.5 mph79%29.92 "HgN/A
Weather by CustomWeather, © 2016

See weather overviewHow to use our weather pages